TimeEDT,TemperatureF,Dew PointF,Humidity,Sea Level PressureIn,VisibilityMPH,Wind Direction,Wind SpeedMPH,Gust SpeedMPH,PrecipitationIn,Events,Conditions,WindDirDegrees,DateUTC
12:56 AM,41.0,38.8,92,29.94,8.0,Calm,Calm,-,N/A,,Clear,0,2014-04-26 04:56:00
1:56 AM,39.9,38.8,96,29.94,6.0,Calm,Calm,-,N/A,,Clear,0,2014-04-26 05:56:00
2:56 AM,39.9,38.8,96,29.92,3.0,Calm,Calm,-,N/A,,Clear,0,2014-04-26 06:56:00
3:28 AM,37.4,37.4,100,29.86,1.5,Calm,Calm,-,N/A,,Clear,0,2014-04-26 07:28:00
3:30 AM,37.4,37.4,100,29.86,0.8,Calm,Calm,-,N/A,,Clear,0,2014-04-26 07:30:00
3:33 AM,37.4,37.4,100,29.85,0.2,Calm,Calm,-,N/A,Fog,Fog,0,2014-04-26 07:33:00
3:46 AM,37.4,37.4,100,29.85,0.8,Calm,Calm,-,N/A,,Clear,0,2014-04-26 07:46:00
3:48 AM,37.4,37.4,100,29.85,1.5,Calm,Calm,-,N/A,,Clear,0,2014-04-26 07:48:00
3:56 AM,38.8,38.8,100,29.91,2.5,Calm,Calm,-,N/A,,Clear,0,2014-04-26 07:56:00
4:03 AM,39.2,39.2,100,29.85,3.0,Calm,Calm,-,N/A,,Clear,0,2014-04-26 08:03:00
4:17 AM,39.2,39.2,100,29.85,2.5,Calm,Calm,-,N/A,,Partly Cloudy,0,2014-04-26 08:17:00
4:56 AM,41.0,41.0,100,29.85,2.5,Calm,Calm,-,N/A,,Scattered Clouds,0,2014-04-26 08:56:00
5:14 AM,42.8,42.8,100,29.86,3.0,Calm,Calm,-,N/A,,Mostly Cloudy,0,2014-04-26 09:14:00
5:56 AM,43.0,41.9,96,29.89,4.0,Calm,Calm,-,N/A,,Mostly Cloudy,0,2014-04-26 09:56:00
6:56 AM,43.0,41.9,96,29.90,2.5,Calm,Calm,-,0.00,Rain,Light Rain,0,2014-04-26 10:56:00
7:04 AM,44.6,42.8,93,29.84,4.0,South,3.5,-,0.00,,Scattered Clouds,170,2014-04-26 11:04:00
7:56 AM,46.4,42.8,87,29.83,5.0,Calm,Calm,-,N/A,,Scattered Clouds,0,2014-04-26 11:56:00
8:56 AM,52.9,45.0,74,29.88,10.0,SW,6.9,-,N/A,,Clear,230,2014-04-26 12:56:00
9:56 AM,57.9,45.9,64,29.86,10.0,SW,8.1,-,N/A,,Clear,230,2014-04-26 13:56:00
10:56 AM,62.6,44.6,52,29.81,10.0,WSW,16.1,-,N/A,,Clear,250,2014-04-26 14:56:00
11:56 AM,63.9,41.0,43,29.85,10.0,West,16.1,29.9,N/A,,Clear,270,2014-04-26 15:56:00
12:32 PM,62.6,44.6,52,29.82,10.0,NW,18.4,28.8,N/A,,Partly Cloudy,310,2014-04-26 16:32:00
12:56 PM,61.9,41.0,46,29.88,10.0,West,15.0,27.6,N/A,,Clear,280,2014-04-26 16:56:00
1:56 PM,61.0,36.9,41,29.89,10.0,West,20.7,28.8,N/A,,Clear,270,2014-04-26 17:56:00
2:56 PM,61.0,36.0,39,29.92,10.0,WNW,15.0,23.0,N/A,,Clear,300,2014-04-26 18:56:00
3:56 PM,57.9,32.9,39,29.94,10.0,NW,15.0,25.3,N/A,,Clear,310,2014-04-26 19:56:00
4:56 PM,56.8,34.0,42,29.98,10.0,NW,16.1,27.6,N/A,,Clear,320,2014-04-26 20:56:00
5:56 PM,52.9,34.0,49,30.02,10.0,NNW,13.8,23.0,N/A,,Clear,330,2014-04-26 21:56:00
6:56 PM,50.9,32.9,50,30.03,10.0,NNW,10.4,-,N/A,,Clear,330,2014-04-26 22:56:00
7:56 PM,46.4,33.8,62,29.99,10.0,North,9.2,-,N/A,,Clear,360,2014-04-26 23:56:00
8:56 PM,43.0,34.0,71,30.07,10.0,North,10.4,-,N/A,,Clear,360,2014-04-27 00:56:00
9:56 PM,41.0,32.9,73,30.10,10.0,North,8.1,-,N/A,,Clear,360,2014-04-27 01:56:00
10:56 PM,38.8,32.9,79,30.12,10.0,North,9.2,-,N/A,,Scattered Clouds,350,2014-04-27 02:56:00
11:11 PM,39.2,33.8,81,30.06,10.0,North,8.1,-,N/A,,Mostly Cloudy,360,2014-04-27 03:11:00
11:56 PM,38.8,32.9,79,30.11,10.0,North,11.5,-,N/A,,Mostly Cloudy,10,2014-04-27 03:56:00